TIROS N 1 11060U 78096A 12035.54707629 .00000069 00000-0 56642-4 0 9788 2 11060 099.0351 032.1527 0010754 154.9377 205.2319 14.17640589935295 NOAA 6 1 11416U 79057A 12035.52540934 .00000221 00000-0 97819-4 0 9807 2 11416 098.4127 035.6757 0009691 293.9552 066.0612 14.32234446699445 NOAA 9 1 15427U 84123A 12035.48667852 -.00000170 00000-0 -65466-4 0 8781 2 15427 098.5502 002.4074 0014916 167.0721 193.0837 14.15468165401087 NOAA 10 1 16969U 86073A 12035.49776536 .00000048 00000-0 37362-4 0 8045 2 16969 098.5964 066.8386 0011460 265.2869 094.7021 14.27525203320796 NOAA 11 1 19531U 88089A 12035.28512595 .00000296 00000-0 17536-3 0 8036 2 19531 098.7382 123.2365 0010426 245.0582 114.9521 14.14953045205577 NOAA 12 1 21263U 91032A 12035.54380423 .00000040 00000-0 35924-4 0 2926 2 21263 098.7392 057.7730 0012921 228.0931 131.9147 14.25475743 77511 NOAA 14 1 23455U 94089A 12035.58153726 .00000024 00000-0 36153-4 0 7757 2 23455 098.8350 120.7323 0009358 345.2122 014.8776 14.13874495881912 NOAA 15 1 25338U 98030A 12035.23150366 .00000028 00000-0 30804-4 0 1270 2 25338 098.6790 023.4855 0011148 134.5217 225.6892 14.25025929713775 NOAA 16 1 26536U 00055A 12035.25003146 .00000052 00000-0 52900-4 0 6112 2 26536 099.1140 075.1940 0011371 101.0143 259.2351 14.12701235586122 NOAA 17 1 27453U 02032A 12035.48808402 .00000175 00000-0 93540-4 0 5852 2 27453 098.3532 069.1891 0011604 184.4401 175.6691 14.24390094499723 NOAA 18 1 28654U 05018A 12035.52916992 -.00000039 00000-0 33512-5 0 626 2 28654 099.0288 352.6288 0014261 167.6967 192.4550 14.11598861345702 NOAA 19 1 33591U 09005A 12035.50712652 .00000065 00000-0 59939-4 0 2504 2 33591 098.8518 337.0409 0014831 041.3025 318.9227 14.11289178154150